Weather observations for the past three days for
Moncks Corner Berkeley County
| Date | Time (edt) | Wind (kph) | Vis. (km) | Weather | Sky Cond. | Temperature (ºC) | Relative Humidity | Wind Chill (°C) | Heat Index (°C) | Pressure | Precipitation (cm) | ||||||
|---|---|---|---|---|---|---|---|---|---|---|---|---|---|---|---|---|---|
| Air | Dwpt | 6 hour | altimeter (cm) | sea level (mb) | 1 hr | 3 hr | 6 hr | ||||||||||
| Max. | Min. | ||||||||||||||||
| 04 | 01:35 | Calm | 16.09 | Fair | CLR | 10 | 9 | 94% | 76.43 | 0.0 | |||||||
| 04 | 01:15 | Calm | 16.09 | Fair | CLR | 10 | 9 | 94% | 76.43 | 0.0 | |||||||
| 04 | 00:55 | Calm | 16.09 | Fair | CLR | 10 | 9 | 94% | 76.43 | 0.0 | |||||||
| 04 | 00:35 | Calm | 16.09 | Fair | CLR | 11 | 9 | 88% | 76.43 | 0.0 | |||||||
| 04 | 00:15 | Calm | 16.09 | Fair | CLR | 11 | 9 | 88% | 76.43 | 0.0 | |||||||
| 03 | 23:55 | Calm | 16.09 | Fair | CLR | 11 | 10 | 94% | 76.43 | 0.0 | |||||||
| 03 | 23:35 | Calm | 16.09 | Fair | CLR | 12 | 10 | 88% | 76.43 | 0.0 | |||||||
| 03 | 23:15 | Calm | 16.09 | Fair | CLR | 12 | 10 | 88% | 76.45 | 0.0 | |||||||
| 03 | 22:55 | Calm | 16.09 | Fair | CLR | 12 | 10 | 88% | 76.43 | 0.0 | |||||||
| 03 | 22:35 | Calm | 16.09 | Fair | CLR | 13 | 9 | 77% | 76.43 | 0.0 | |||||||
| 03 | 22:15 | Calm | 16.09 | Fair | CLR | 13 | 10 | 82% | 76.43 | 0.0 | |||||||
| 03 | 21:55 | Calm | 16.09 | Fair | CLR | 14 | 9 | 72% | 76.4 | 0.0 | |||||||
| 03 | 21:35 | Calm | 16.09 | Fair | CLR | 15 | 9 | 68% | 76.4 | 0.0 | |||||||
| 03 | 21:15 | S 6 | 16.09 | Fair | CLR | 15 | 10 | 72% | 76.4 | 0.0 | |||||||
| 03 | 20:55 | S 6 | 16.09 | Fair | CLR | 15 | 10 | 72% | 76.38 | 0.0 | |||||||
| 03 | 20:35 | S 6 | 16.09 | Fair | CLR | 16 | 10 | 68% | 76.35 | 0.0 | |||||||
| 03 | 20:15 | SE 7 | 16.09 | Fair | CLR | 16 | 10 | 68% | 76.33 | 0.0 | |||||||
| 03 | 19:55 | S 6 | 16.09 | Partly Cloudy | SCT070 | 17 | 10 | 64% | 76.33 | 0.0 | |||||||
| 03 | 19:35 | SE 6 | 16.09 | Mostly Cloudy | BKN070 | 18 | 10 | 60% | 76.3 | 0.0 | |||||||
| 03 | 19:15 | SE 7 | 16.09 | Partly Cloudy | SCT070 | 18 | 9 | 56% | 76.3 | 0.0 | |||||||
| 03 | 18:55 | S 11 | 16.09 | Partly Cloudy | SCT065 | 19 | 8 | 49% | 76.3 | 0.0 | |||||||
| 03 | 18:35 | S 9 | 16.09 | Partly Cloudy | SCT065 | 20 | 9 | 49% | 76.3 | 0.0 | |||||||
| 03 | 18:15 | S 7 | 16.09 | Partly Cloudy | SCT065 | 20 | 8 | 46% | 76.3 | 0.0 | |||||||
| 03 | 17:55 | N 7 | 16.09 | Partly Cloudy | SCT065 | 21 | 7 | 40% | 76.28 | 0.0 | |||||||
| 03 | 17:35 | N 6 | 16.09 | Fair | CLR | 21 | 7 | 40% | 76.3 | 0.0 | |||||||
| 03 | 17:15 | NE 9 | 16.09 | Fair | CLR | 20 | 7 | 43% | 76.3 | 0.0 | |||||||
| 03 | 16:55 | N 11 | 16.09 | Fair | CLR | 20 | 7 | 43% | 76.3 | 0.0 | |||||||
| 03 | 16:35 | N 7 | 16.09 | Fair | CLR | 21 | 7 | 40% | 76.33 | 0.0 | |||||||
| 03 | 16:15 | N 9 | 16.09 | Fair | CLR | 20 | 7 | 43% | 76.33 | 0.0 | |||||||
| 03 | 15:55 | NE 7 | 16.09 | Fair | CLR | 21 | 6 | 38% | 76.35 | 0.0 | |||||||
| 03 | 15:35 | N 7 | 16.09 | Fair | CLR | 20 | 7 | 43% | 76.38 | 0.0 | |||||||
| 03 | 15:15 | N 9 | 16.09 | Fair | CLR | 20 | 6 | 40% | 76.43 | 0.0 | |||||||
| 03 | 14:55 | N 7 | 16.09 | Partly Cloudy | SCT060 | 19 | 6 | 43% | 76.45 | 0.0 | |||||||
| 03 | 14:35 | N 7 | 16.09 | Partly Cloudy | SCT060 | 20 | 6 | 40% | 76.45 | 0.0 | |||||||
| 03 | 14:15 | NE 7 | 16.09 | Fair | CLR | 19 | 5 | 40% | 76.48 | 0.0 | |||||||
| 03 | 13:55 | N 6 | 16.09 | Fair | CLR | 18 | 5 | 43% | 76.48 | 0.0 | |||||||
| 03 | 13:35 | NW 6 | 16.09 | Fair | CLR | 18 | 5 | 43% | 76.5 | 0.0 | |||||||
| 03 | 13:15 | NW 6 | 16.09 | Fair | CLR | 18 | 5 | 43% | 76.53 | 0.0 | |||||||
| 03 | 12:55 | NW 7 | 16.09 | Fair | CLR | 18 | 5 | 43% | 76.53 | 0.0 | |||||||
| 03 | 12:35 | W 9 | 16.09 | Fair | CLR | 18 | 5 | 43% | 76.53 | 0.0 | |||||||
| 03 | 12:15 | NE 9 | 16.09 | Fair | CLR | 18 | 5 | 43% | 76.53 | 0.0 | |||||||
| 03 | 11:55 | Calm | 16.09 | Fair | CLR | 17 | 6 | 49% | 76.53 | 0.0 | |||||||
| 03 | 11:35 | N 6 | 16.09 | Fair | CLR | 17 | 6 | 49% | 76.56 | 0.0 | |||||||
| 03 | 11:15 | E 7 | 16.09 | Fair | CLR | 17 | 6 | 49% | 76.56 | 0.0 | |||||||
| 03 | 10:55 | E 7 | 16.09 | Fair | CLR | 16 | 5 | 48% | 76.56 | 0.0 | |||||||
| 03 | 10:35 | NE 7 | 16.09 | Fair | CLR | 17 | 6 | 49% | 76.56 | 0.0 | |||||||
| 03 | 10:15 | NE 9 | 16.09 | Fair | CLR | 16 | 7 | 55% | 76.56 | 0.0 | |||||||
| 03 | 09:55 | NE 13 | 16.09 | Fair | CLR | 16 | 7 | 55% | 76.53 | 0.0 | |||||||
| 03 | 09:35 | N 11 | 16.09 | Fair | CLR | 15 | 8 | 63% | 76.5 | 0.0 | |||||||
| 03 | 09:15 | NE 9 | 16.09 | Fair | CLR | 15 | 10 | 72% | 76.5 | 0.0 | |||||||
| 03 | 08:55 | Calm | 16.09 | Fair | CLR | 13 | 12 | 94% | 76.5 | 0.0 | |||||||
| 03 | 08:35 | Calm | 16.09 | Fair | CLR | 12 | 11 | 94% | 76.5 | 0.0 | |||||||
| 03 | 08:15 | Calm | 16.09 | Fair | CLR | 11 | 11 | 100% | 76.48 | 0.0 | |||||||
| 03 | 07:55 | Calm | 16.09 | Fair | CLR | 10 | 10 | 100% | 76.48 | 0.0 | |||||||
| 03 | 07:35 | Calm | 11.27 | Fair | CLR | 9 | 9 | 100% | 76.45 | 0.0 | |||||||
| 03 | 07:15 | Calm | 11.27 | Fair | CLR | 8 | 8 | 100% | 76.43 | 0.0 | |||||||
| 03 | 06:35 | Calm | 0.40 | Fog | OVC003 | 7 | 7 | 100% | 76.38 | 0.0 | |||||||
| 03 | 06:15 | Calm | 0.80 | Fog | BKN003 | 7 | 7 | 100% | 76.35 | 0.0 | |||||||
| 03 | 05:55 | Calm | 4.83 | Fog/Mist | CLR | 7 | 7 | 100% | 76.35 | 0.0 | |||||||
| 03 | 05:35 | Calm | 4.02 | Fog/Mist | CLR | 7 | 7 | 100% | 76.33 | 0.0 | |||||||
| 03 | 05:15 | Calm | 2.41 | Fog/Mist | VV007 | 8 | 7 | 93% | 76.33 | 0.0 | |||||||
| 03 | 04:55 | Calm | 6.44 | Fog/Mist | CLR | 8 | 7 | 93% | 76.33 | 0.0 | |||||||
| 03 | 04:35 | Calm | 4.02 | Fog/Mist | SCT003 | 7 | 7 | 100% | 76.3 | 0.0 | |||||||
| 03 | 04:15 | Calm | 0.80 | Fog | BKN003 | 7 | 7 | 100% | 76.3 | 0.0 | |||||||
| 03 | 03:55 | Calm | 8.05 | Fog/Mist | SCT003 | 7 | 7 | 100% | 76.28 | 0.0 | |||||||
| 03 | 03:35 | Calm | 0.80 | Fog | BKN003 | 7 | 7 | 100% | 76.28 | 0.0 | |||||||
| 03 | 03:15 | Calm | 1.61 | Fog/Mist | SCT003 | 8 | 8 | 100% | 76.25 | 0.0 | |||||||
| 03 | 02:55 | Calm | 2.01 | Fog/Mist | SCT003 | 8 | 7 | 93% | 76.25 | 0.0 | |||||||
| 03 | 02:35 | Calm | 2.01 | Fog/Mist | SCT003 | 8 | 8 | 100% | 76.25 | 0.0 | |||||||
| 03 | 02:15 | Calm | 2.41 | Fog/Mist | SCT003 | 9 | 8 | 94% | 76.23 | 0.0 | |||||||
| 03 | 01:55 | SW 6 | 1.21 | Fog/Mist | BKN003 | 8 | 8 | 100% | 76.23 | 0.0 | |||||||
| 03 | 01:35 | Calm | 2.41 | Fog/Mist | VV007 | 9 | 9 | 100% | 76.25 | 0.0 | |||||||
| 03 | 01:15 | Calm | 6.44 | Fog/Mist | CLR | 9 | 9 | 100% | 76.23 | 0.0 | |||||||
| 03 | 00:55 | Calm | 4.02 | Fog/Mist | CLR | 10 | 10 | 100% | 76.2 | 0.0 | |||||||
| 03 | 00:35 | Calm | 16.09 | Partly Cloudy | SCT100 | 11 | 10 | 94% | 76.2 | 0.0 | |||||||
| 03 | 00:15 | Calm | 16.09 | Mostly Cloudy | BKN090 | 12 | 10 | 88% | 76.2 | 0.0 | |||||||
| 02 | 23:55 | N 6 | 16.09 | Partly Cloudy | SCT090 | 12 | 10 | 88% | 76.17 | 0.0 | |||||||
| 02 | 23:35 | N 6 | 16.09 | Partly Cloudy | SCT090 | 12 | 10 | 88% | 76.17 | 0.0 | |||||||
| 02 | 23:15 | N 6 | 16.09 | Partly Cloudy | SCT014 | 12 | 10 | 88% | 76.15 | 0.0 | |||||||
| 02 | 22:55 | N 6 | 16.09 | Mostly Cloudy | BKN014 | 12 | 11 | 94% | 76.1 | 0.0 | |||||||
| 02 | 22:35 | N 6 | 16.09 | Mostly Cloudy | BKN014 BKN110 | 12 | 11 | 94% | 76.07 | 0.0 | |||||||
| 02 | 22:15 | N 7 | 16.09 | Overcast | BKN014 OVC110 | 12 | 11 | 94% | 76.07 | 0.0 | |||||||
| 02 | 21:55 | N 6 | 16.09 | Overcast | BKN014 OVC100 | 12 | 11 | 94% | 76.07 | 0.0 | |||||||
| 02 | 21:35 | Calm | 16.09 | Overcast | SCT012 SCT085 OVC100 | 12 | 11 | 94% | 76.05 | 0.0 | |||||||
| 02 | 21:15 | NE 6 | 16.09 | Overcast | SCT014 OVC110 | 12 | 11 | 94% | 76.02 | 0.0 | |||||||
| 02 | 20:55 | NE 6 | 16.09 | Overcast | BKN014 OVC100 | 12 | 11 | 94% | 76.02 | 0.0 | |||||||
| 02 | 20:35 | NE 11 | 16.09 | Overcast | OVC012 | 13 | 11 | 88% | 76 | 0.0 | |||||||
| 02 | 20:15 | N 7 | 16.09 | Overcast | OVC012 | 13 | 11 | 88% | 75.97 | 0.0 | |||||||
| 02 | 19:55 | N 7 | 16.09 | Overcast | OVC014 | 13 | 11 | 88% | 75.95 | 0.0 | |||||||
| 02 | 19:35 | N 11 | 16.09 | Overcast | OVC014 | 13 | 11 | 88% | 75.92 | 0.0 | |||||||
| 02 | 19:15 | N 9 | 11.27 | Overcast | BKN011 OVC016 | 13 | 11 | 88% | 75.92 | 0.0 | |||||||
| 02 | 18:55 | N 11 | 16.09 | Overcast | BKN014 BKN018 OVC060 | 13 | 11 | 88% | 75.92 | 0.0 | |||||||
| 02 | 18:35 | N 13 | 16.09 | Overcast | BKN012 OVC060 | 13 | 11 | 88% | 75.92 | 0.0 | |||||||
| 02 | 18:15 | N 9 | 16.09 | Overcast | OVC012 | 13 | 12 | 94% | 75.9 | 0.0 | |||||||
| 02 | 17:55 | NE 15 | 11.27 | Overcast | OVC012 | 13 | 12 | 94% | 75.9 | 0.0 | |||||||
| 02 | 17:35 | N 17 | 16.09 | Overcast | BKN012 OVC017 | 13 | 12 | 94% | 75.87 | 0.0 | |||||||
| 02 | 17:15 | N 17 | 16.09 | Overcast | BKN010 OVC014 | 13 | 12 | 94% | 75.84 | 0.0 | |||||||
| 02 | 16:55 | N 9 | 16.09 | Overcast | BKN008 OVC013 | 13 | 12 | 94% | 75.84 | 0.0 | |||||||
| 02 | 16:35 | NE 11 | 11.27 | Light Rain | OVC008 | 13 | 12 | 94% | 75.82 | 0.0 | |||||||
| 02 | 16:15 | N 9 | 6.44 | Light Rain | BKN008 OVC013 | 13 | 12 | 94% | 75.82 | 0.0 | |||||||
| 02 | 15:55 | N 15 | 4.83 | Light Rain | SCT010 BKN013 OVC032 | 13 | 12 | 94% | 75.84 | 0.0 | 0.05 | ||||||
| 02 | 15:35 | N 13 | 3.22 | Light Rain | OVC010 | 13 | 12 | 94% | 75.84 | 0.0 | 0.03 | ||||||
| 02 | 15:15 | N 13 | 6.44 | Light Rain | BKN010 OVC013 | 13 | 12 | 94% | 75.87 | 0.0 | 0.03 | ||||||
| 02 | 14:55 | N 17 | 6.44 | Light Rain | OVC010 | 13 | 12 | 94% | 75.82 | 0.0 | |||||||
| 02 | 14:35 | N 17 G 26 | 16.09 | Light Rain | OVC010 | 14 | 13 | 94% | 75.82 | 0.0 | |||||||
| 02 | 14:15 | N 13 | 16.09 | Overcast | OVC012 | 14 | 13 | 94% | 75.79 | 0.0 | |||||||
| 02 | 13:55 | NE 17 G 28 | 16.09 | Light Rain | SCT005 BKN010 OVC015 | 14 | 13 | 94% | 75.82 | 0.0 | 0.18 | ||||||
| 02 | 13:35 | NE 20 | 11.27 | Light Rain | BKN007 BKN014 OVC022 | 15 | 13 | 88% | 75.82 | 0.0 | 0.18 | ||||||
| 02 | 13:15 | N 9 | 11.27 | Heavy Rain | BKN009 BKN015 OVC020 | 15 | 14 | 94% | 75.84 | 0.0 | 0.1 | ||||||
| 02 | 12:55 | N 6 | 16.09 | Light Rain | OVC009 | 15 | 14 | 94% | 75.82 | 0.0 | 0.08 | ||||||
| 02 | 12:35 | N 9 | 16.09 | Light Rain | OVC013 | 15 | 14 | 94% | 75.82 | 0.0 | 0.05 | ||||||
| 02 | 12:15 | NE 11 | 11.27 | Rain | SCT009 OVC016 | 15 | 14 | 94% | 75.82 | 0.0 | 0.03 | ||||||
| 02 | 11:55 | NE 6 | 8.05 | Light Rain | BKN009 OVC012 | 15 | 13 | 88% | 75.87 | 0.0 | 0.18 | ||||||
| 02 | 11:35 | N 7 | 8.05 | Light Rain | SCT007 BKN012 OVC034 | 15 | 13 | 88% | 75.92 | 0.0 | 0.13 | ||||||
| 02 | 11:15 | NE 7 | 8.05 | Light Rain | SCT011 BKN041 OVC048 | 15 | 13 | 88% | 75.9 | 0.0 | 0.08 | ||||||
| 02 | 10:55 | NE 6 | 8.05 | Rain | BKN011 BKN038 OVC050 | 14 | 13 | 94% | 75.9 | 0.0 | 0.28 | ||||||
| 02 | 10:35 | N 6 | 8.05 | Rain | SCT011 BKN016 OVC050 | 14 | 13 | 94% | 75.92 | 0.0 | 0.15 | ||||||
| 02 | 10:15 | NE 6 | 8.05 | Rain | SCT017 BKN031 OVC050 | 14 | 13 | 94% | 75.9 | 0.0 | 0.08 | ||||||
| 02 | 09:55 | NE 15 | 8.05 | Rain | SCT017 BKN031 OVC038 | 14 | 13 | 94% | 75.87 | 0.0 | 0.46 | ||||||
| 02 | 09:35 | N 7 | 6.44 | Heavy Rain | SCT015 BKN030 OVC065 | 15 | 13 | 88% | 75.92 | 0.0 | 0.3 | ||||||
| 02 | 09:15 | NE 13 | 8.05 | Rain | SCT013 BKN050 OVC065 | 15 | 14 | 94% | 75.87 | 0.0 | 0.1 | ||||||
| 02 | 08:55 | N 11 | 8.05 | Rain | SCT008 BKN033 OVC050 | 15 | 15 | 100% | 75.84 | 0.0 | 0.18 | ||||||
| 02 | 08:35 | N 6 | 6.44 | Rain | BKN008 BKN019 OVC039 | 16 | 15 | 94% | 75.87 | 0.0 | 0.05 | ||||||
| 02 | 08:15 | NE 9 | 16.09 | Overcast | OVC006 | 16 | 15 | 94% | 75.82 | 0.0 | |||||||
| 02 | 07:55 | NE 11 | 16.09 | Overcast | OVC006 | 16 | 15 | 94% | 75.77 | 0.0 | |||||||
| 02 | 07:35 | NE 13 | 16.09 | Overcast | BKN004 BKN008 OVC100 | 16 | 16 | 100% | 75.79 | 0.0 | |||||||
| 02 | 07:15 | NE 9 | 11.27 | Light Rain | NULL | 16 | 15 | 94% | 75.79 | 0.0 | |||||||
| 02 | 06:55 | NE 7 | 4.83 | Light Rain | NULL | 16 | 16 | 100% | 75.82 | 0.0 | 0.15 | ||||||
| 02 | 06:35 | Calm | 8.05 | Light Rain | NULL | 16 | 16 | 100% | 75.84 | 0.0 | 0.13 | ||||||
| 02 | 06:15 | NE 6 | 4.83 | Rain | NULL | 16 | 16 | 100% | 75.84 | 0.0 | 0.08 | ||||||
| 02 | 05:55 | Calm | 3.22 | Rain | OVC003 | 16 | 16 | 100% | 75.87 | 0.0 | 0.15 | ||||||
| 02 | 05:35 | Calm | 4.83 | Light Rain | BKN003 OVC050 | 16 | 16 | 100% | 75.87 | 0.0 | 0.08 | ||||||
| 02 | 05:15 | Calm | 6.44 | Light Rain | BKN003 BKN008 OVC050 | 16 | 16 | 100% | 75.84 | 0.0 | 0.03 | ||||||
| 02 | 04:55 | Calm | 6.44 | Rain | OVC003 | 16 | 16 | 100% | 75.84 | 0.0 | 0.1 | ||||||
| 02 | 04:35 | Calm | 6.44 | Light Rain | BKN003 BKN009 OVC049 | 16 | 16 | 100% | 75.84 | 0.0 | 0.08 | ||||||
| 02 | 04:15 | Calm | 6.44 | Light Rain | SCT003 BKN010 OVC050 | 16 | 16 | 100% | 75.84 | 0.0 | 0.05 | ||||||
| 02 | 03:55 | Calm | 4.83 | Light Rain | SCT003 BKN008 OVC050 | 16 | 16 | 100% | 75.87 | 0.0 | 0.15 | ||||||
| 02 | 03:15 | Calm | 8.05 | Light Rain | OVC050 | 16 | 16 | 100% | 75.87 | 0.0 | |||||||
| 02 | 02:55 | Calm | 8.05 | Light Rain | OVC050 | 16 | 16 | 100% | 75.87 | 0.0 | 0.08 | ||||||
| 02 | 02:35 | Calm | 8.05 | Light Rain | OVC050 | 16 | 16 | 100% | 75.84 | 0.0 | 0.05 | ||||||
| 02 | 02:15 | Calm | 11.27 | Light Rain | SCT046 OVC060 | 16 | 15 | 94% | 75.84 | 0.0 | 0.03 | ||||||
| 02 | 01:55 | Calm | 16.09 | Light Rain | SCT046 OVC060 | 16 | 15 | 94% | 75.87 | 0.0 | |||||||
| 02 | 01:35 | Calm | 16.09 | Overcast | OVC060 | 17 | 15 | 88% | 75.87 | 0.0 | |||||||
| 02 | 01:15 | Calm | 16.09 | Overcast | OVC060 | 17 | 16 | 94% | 75.9 | 0.0 | |||||||
| 02 | 00:55 | Calm | 16.09 | Overcast | OVC060 | 16 | 16 | 100% | 75.9 | 0.0 | |||||||
| 02 | 00:35 | Calm | 16.09 | Overcast | OVC060 | 16 | 16 | 100% | 75.92 | 0.0 | |||||||
| 02 | 00:15 | Calm | 16.09 | Overcast | OVC060 | 16 | 16 | 100% | 75.92 | 0.0 | |||||||
| 01 | 23:55 | Calm | 16.09 | Overcast | SCT016 OVC060 | 17 | 16 | 94% | 75.92 | 0.0 | |||||||
| 01 | 23:35 | Calm | 16.09 | Overcast | BKN016 OVC070 | 17 | 16 | 94% | 75.95 | 0.0 | |||||||
| 01 | 23:15 | Calm | 16.09 | Overcast | SCT016 OVC070 | 17 | 16 | 94% | 75.97 | 0.0 | |||||||
| 01 | 22:55 | Calm | 16.09 | Overcast | OVC070 | 17 | 16 | 94% | 75.97 | 0.0 | |||||||
| 01 | 22:35 | Calm | 16.09 | Overcast | OVC070 | 17 | 16 | 94% | 75.97 | 0.0 | |||||||
| 01 | 22:15 | Calm | 11.27 | Overcast | SCT009 OVC070 | 17 | 16 | 94% | 76 | 0.0 | |||||||
| 01 | 21:55 | Calm | 16.09 | Overcast | OVC009 | 17 | 16 | 94% | 76.02 | 0.0 | |||||||
| 01 | 21:35 | Calm | 16.09 | Overcast | BKN010 OVC013 | 17 | 16 | 94% | 75.97 | 0.0 | |||||||
| 01 | 21:15 | Calm | 16.09 | Light Rain | OVC010 | 17 | 16 | 94% | 75.95 | 0.0 | |||||||
| 01 | 20:55 | Calm | 16.09 | Light Rain | OVC012 | 17 | 16 | 94% | 75.92 | 0.0 | |||||||
| 01 | 20:35 | Calm | 16.09 | Light Rain | OVC014 | 17 | 16 | 94% | 75.92 | 0.0 | |||||||
| 01 | 20:15 | Calm | 16.09 | Overcast | OVC014 | 17 | 16 | 94% | 75.9 | 0.0 | |||||||
| 01 | 19:55 | N 6 | 16.09 | Overcast | OVC012 | 17 | 16 | 94% | 75.92 | 0.0 | |||||||
| 01 | 19:35 | Calm | 16.09 | Overcast | OVC012 | 18 | 16 | 88% | 75.92 | 0.0 | |||||||
| 01 | 19:15 | Calm | 16.09 | Overcast | BKN014 BKN033 OVC049 | 18 | 16 | 88% | 75.9 | 0.0 | |||||||
| 01 | 18:55 | NE 6 | 16.09 | Light Rain | SCT016 BKN049 OVC110 | 18 | 16 | 88% | 75.9 | 0.0 | |||||||
| 01 | 18:35 | NE 7 | 16.09 | Light Rain | BKN015 BKN029 OVC110 | 18 | 16 | 88% | 75.9 | 0.0 | |||||||
| 01 | 18:15 | NE 7 | 16.09 | Overcast | OVC015 | 18 | 16 | 88% | 75.92 | 0.0 | |||||||
| 01 | 17:55 | E 7 | 16.09 | Overcast | BKN015 OVC110 | 18 | 15 | 83% | 75.9 | 0.0 | |||||||
| 01 | 17:35 | E 7 | 16.09 | Mostly Cloudy | SCT020 BKN031 BKN049 | 18 | 15 | 83% | 75.87 | 0.0 | |||||||
| 01 | 17:15 | E 9 | 16.09 | Overcast | BKN020 OVC034 | 18 | 15 | 83% | 75.87 | 0.0 | |||||||
| 01 | 16:55 | NE 7 | 16.09 | Light Rain | BKN020 BKN029 OVC075 | 18 | 15 | 83% | 75.95 | 0.0 | |||||||
| 01 | 16:35 | Calm | 16.09 | Overcast | SCT020 OVC075 | 18 | 15 | 83% | 75.92 | 0.0 | |||||||
| 01 | 16:15 | E 7 | 16.09 | Overcast | BKN075 OVC100 | 19 | 15 | 78% | 75.92 | 0.0 | |||||||
| 01 | 15:55 | E 7 | 16.09 | Overcast | BKN075 OVC100 | 19 | 14 | 73% | 75.92 | 0.0 | |||||||
| 01 | 15:35 | E 9 | 16.09 | Overcast | OVC075 | 19 | 14 | 73% | 75.95 | 0.0 | |||||||
| 01 | 15:15 | E 7 | 16.09 | Overcast | SCT037 SCT049 OVC075 | 19 | 14 | 73% | 75.95 | 0.0 | |||||||
| 01 | 14:55 | SE 7 | 16.09 | Overcast | SCT032 BKN049 OVC075 | 19 | 15 | 78% | 76 | 0.0 | |||||||
| 01 | 14:35 | E 7 | 16.09 | Overcast | SCT032 BKN038 OVC085 | 18 | 15 | 83% | 76 | 0.0 | |||||||
| 01 | 14:15 | E 7 | 16.09 | Overcast | SCT025 BKN045 OVC085 | 19 | 15 | 78% | 76 | 0.0 | |||||||
| 01 | 13:55 | E 7 | 11.27 | Light Rain | SCT033 BKN038 OVC050 | 19 | 15 | 78% | 76.02 | 0.0 | |||||||
| 01 | 13:35 | E 9 | 16.09 | Light Rain | SCT033 OVC055 | 20 | 14 | 69% | 76.05 | 0.0 | |||||||
| 01 | 13:15 | E 11 | 16.09 | Overcast | SCT035 OVC055 | 20 | 14 | 69% | 76.02 | 0.0 | |||||||
| 01 | 12:55 | E 9 | 16.09 | Overcast | BKN055 OVC070 | 20 | 14 | 69% | 76.02 | 0.0 | |||||||
| 01 | 12:35 | E 7 | 16.09 | Overcast | OVC055 | 20 | 14 | 69% | 76.05 | 0.0 | |||||||
| 01 | 12:15 | E 6 | 16.09 | Mostly Cloudy | SCT025 BKN055 | 20 | 15 | 73% | 76.05 | 0.0 | |||||||
| 01 | 11:55 | E 7 | 16.09 | Mostly Cloudy | SCT020 BKN025 | 21 | 15 | 69% | 76.05 | 0.0 | |||||||
| 01 | 11:35 | NE 13 | 16.09 | Overcast | OVC018 | 20 | 14 | 69% | 76.07 | 0.0 | |||||||
| 01 | 11:15 | NE 13 | 16.09 | Overcast | OVC016 | 19 | 14 | 73% | 76.07 | 0.0 | |||||||
| 01 | 10:55 | NE 13 | 16.09 | Overcast | OVC014 | 18 | 15 | 83% | 76.07 | 0.0 | |||||||
| 01 | 10:15 | E 13 | 16.09 | Overcast | BKN012 OVC022 | 18 | 15 | 83% | 76.05 | 0.0 | |||||||
| 01 | 09:55 | NE 13 | 16.09 | Mostly Cloudy | BKN012 BKN020 | 18 | 15 | 83% | 76.05 | 0.0 | |||||||
| 01 | 09:35 | NE 17 | 16.09 | Partly Cloudy | SCT010 | 18 | 15 | 83% | 76.02 | 0.0 | |||||||
| 01 | 09:15 | NE 19 | 16.09 | Partly Cloudy | SCT010 | 18 | 15 | 83% | 76.02 | 0.0 | |||||||
| 01 | 08:55 | E 11 | 16.09 | Partly Cloudy | SCT010 SCT018 | 17 | 15 | 88% | 76.02 | 0.0 | |||||||
| 01 | 08:35 | E 13 | 16.09 | Partly Cloudy | SCT018 | 17 | 15 | 88% | 76 | 0.0 | |||||||
| 01 | 08:15 | E 15 | 16.09 | Fair | CLR | 17 | 15 | 88% | 76 | 0.0 | |||||||
| 01 | 07:55 | E 9 | 16.09 | Fair | CLR | 16 | 15 | 94% | 76 | 0.0 | |||||||
| 01 | 07:35 | NE 11 | 16.09 | Fair | CLR | 16 | 15 | 94% | 76 | 0.0 | |||||||
| 01 | 07:15 | NE 11 | 16.09 | Partly Cloudy | SCT034 | 16 | 15 | 94% | 75.97 | 0.0 | |||||||
| 01 | 06:55 | NE 13 | 16.09 | Overcast | OVC034 | 17 | 16 | 94% | 76 | 0.0 | |||||||
| 01 | 06:35 | N 9 | 16.09 | Mostly Cloudy | BKN034 | 16 | 16 | 100% | 75.95 | 0.0 | |||||||
| 01 | 06:15 | Calm | 16.09 | Fair | CLR | 16 | 15 | 94% | 75.92 | 0.0 | |||||||
| 01 | 05:55 | Calm | 16.09 | Partly Cloudy | SCT060 | 16 | 15 | 94% | 75.92 | 0.0 | |||||||
| 01 | 05:35 | Calm | 16.09 | Fair | CLR | 16 | 15 | 94% | 75.92 | 0.0 | |||||||
| 01 | 05:15 | Calm | 16.09 | Partly Cloudy | SCT070 | 15 | 15 | 100% | 75.9 | 0.0 | |||||||
| 01 | 04:55 | Calm | 8.05 | Fog/Mist | SCT070 | 15 | 15 | 100% | 75.9 | 0.0 | |||||||
| 01 | 04:35 | Calm | 16.09 | Mostly Cloudy | BKN070 | 16 | 15 | 94% | 75.9 | 0.0 | |||||||
| 01 | 04:15 | Calm | 16.09 | Overcast | OVC070 | 16 | 15 | 94% | 75.87 | 0.0 | |||||||
| 01 | 03:50 | Calm | 11.27 | Partly Cloudy | SCT075 | 16 | 15 | 94% | 75.9 | 0.0 | |||||||
| 01 | 03:35 | Calm | 16.09 | Partly Cloudy | SCT065 SCT075 | 16 | 15 | 94% | 75.87 | 0.0 | |||||||
| 01 | 03:15 | Calm | 16.09 | Overcast | SCT065 OVC075 | 16 | 15 | 94% | 75.87 | 0.0 | |||||||
| 01 | 02:55 | SW 6 | 16.09 | Overcast | BKN065 OVC085 | 16 | 16 | 100% | 75.87 | 0.0 | |||||||
| 01 | 02:35 | Calm | 16.09 | Overcast | BKN065 OVC080 | 17 | 16 | 94% | 75.87 | 0.0 | |||||||
| 01 | 02:15 | Calm | 16.09 | Overcast | BKN065 OVC080 | 17 | 16 | 94% | 75.87 | 0.0 | |||||||
| Date | Time (edt) | Wind (kph) | Vis. (km) | Weather | Sky Cond. | Air | Dwpt | Max. | Min. | Relative Humidity | Wind Chill (°C) | Heat Index (°C) | altimeter (cm) | sea level (mb) | 1 hr | 3 hr | 6 hr |
| 6 hour | |||||||||||||||||
| Temperature (ºC) | Pressure | Precipitation (cm) | |||||||||||||||